This is the latest recevied weather packets stored in our database for station/object N7WSS. If no packets are shown the sender has not sent any weather packets the latest 10 day(s).
| Time | Temp. | Humidity | Pressure | Rain* | Wind** | Luminosity | Snow |
|---|---|---|---|---|---|---|---|
| 1777488276 | 25.56° C | 13% | 1014.7 hPa | 0 mm | - | - | - |
| 1777487975 | 25° C | 17% | 1014.7 hPa | 0 mm | - | - | - |
| 1777487672 | 25° C | 18% | 1014.3 hPa | 0 mm | - | - | - |
| 1777487368 | 25° C | 18% | 1014.5 hPa | 0 mm | - | - | - |
| 1777487067 | 25° C | 16% | 1014.5 hPa | 0 mm | - | - | - |
| 1777486762 | 25° C | 18% | 1014.5 hPa | 0 mm | - | - | - |
| 1777486460 | 24.44° C | 15% | 1014.5 hPa | 0 mm | - | - | - |
| 1777486157 | 24.44° C | 19% | 1014.7 hPa | 0 mm | - | - | - |
| 1777485854 | 23.89° C | 19% | 1015.2 hPa | 0 mm | - | - | - |
| 1777485555 | 24.44° C | 19% | 1015.1 hPa | 0 mm | - | - | - |
| 1777485251 | 23.33° C | 20% | 1014.8 hPa | 0 mm | - | - | - |
| 1777484948 | 22.78° C | 20% | 1014.7 hPa | 0 mm | - | - | - |
| 1777484645 | 23.33° C | 21% | 1014.7 hPa | 0 mm | - | - | - |
| 1777484341 | 22.78° C | 21% | 1014.8 hPa | 0 mm | - | - | - |
| 1777484037 | 22.78° C | 21% | 1014.9 hPa | 0 mm | - | - | - |
| 1777483734 | 22.78° C | 21% | 1015.1 hPa | 0 mm | - | - | - |
| 1777483430 | 23.33° C | 21% | 1015 hPa | 0 mm | - | - | - |
| 1777483124 | 22.78° C | 21% | 1015.1 hPa | 0 mm | - | - | - |
| 1777482822 | 22.78° C | 22% | 1015.1 hPa | 0 mm | - | - | - |
| 1777482518 | 22.78° C | 21% | 1015.1 hPa | 0 mm | - | - | - |
| 1777482216 | 22.78° C | 21% | 1015 hPa | 0 mm | - | - | - |
| 1777481913 | 22.22° C | 22% | 1014.9 hPa | 0 mm | - | - | - |
| 1777481611 | 22.78° C | 22% | 1014.9 hPa | 0 mm | - | - | - |
| 1777481307 | 22.78° C | 22% | 1015 hPa | 0 mm | - | - | - |
| 1777481004 | 21.67° C | 22% | 1014.8 hPa | 0 mm | - | - | - |
* Rain latest hour (hover to see other rain measurements)
** Current wind speed in m/s (hover to see current wind gust speed)